Regional Weather Roundup
Issued by NWS

Home | Current Version | Previous Version | Graphics & Text | Print | Product List | Glossary On
Versions: 1 2 3 4 5 6 7 8 9 10 11 12 13 14 15 16 17 18 19 20 21 22 23 24 25 26 27 28 29 30 31 32 33 34 35 36 37 38 39 40 41 42 43 44 45 46 47 48 49 50
596
ASUS45 KBOI 252010
RWRID

IDAHO REGIONAL WEATHER ROUNDUP
NATIONAL WEATHER SERVICE BOISE ID
200 PM MDT SUN SEP 25 2016

NOTE: "FAIR" INDICATES FEW OR NO CLOUDS BELOW 12000 FEET
WITH NO SIGNIFICANT WEATHER AND/OR OBSTRUCTIONS TO VISIBILITY

IDZ012-014-252100-
SOUTHWEST IDAHO


CITY           SKY/WX    TMP DP  RH WIND       PRES   REMARKS
BOISE          SUNNY     69  34  27 W7        30.45F
CALDWELL       SUNNY     70  37  29 VRB3      30.44F
MOUNTAIN HOME  SUNNY     68  36  30 N5        30.45F
$$

IDZ016-017-252100-
SOUTHCENTRAL IDAHO


CITY           SKY/WX    TMP DP  RH WIND       PRES   REMARKS
BURLEY         SUNNY     62  39  42 W8        30.47F
JEROME         SUNNY     62  39  42 CALM      30.48F
TWIN FALLS     SUNNY     63  37  38 VRB7      30.48F
$$

IDZ019>023-252100-
SOUTHEAST IDAHO


CITY           SKY/WX    TMP DP  RH WIND       PRES   REMARKS
IDAHO FALLS    SUNNY     59  35  40 W8        30.50S
POCATELLO      SUNNY     63  38  39 W8        30.49F
REXBURG        SUNNY     59  37  44 MISG      30.49F
$$

IDZ006-010-011-018-031-032-252100-
CENTRAL IDAHO MOUNTAINS


CITY           SKY/WX    TMP DP  RH WIND       PRES   REMARKS
MCCALL         SUNNY     66  31  27 VRB3      30.48F
HAILEY         SUNNY     61  41  48 SE9       30.51F
STANLEY          N/A     64  34  32 VRB5      30.53F
SALMON         SUNNY     59  36  41 CALM      30.47F
CHALLIS        SUNNY     61  29  29 CALM      30.48F
$$

IDZ002-004-006-007-026-252100-
NORTHERN IDAHO


CITY           SKY/WX    TMP DP  RH WIND       PRES   REMARKS
LEWISTON       MOSUNNY   72  39  30 N3        30.40F
LOWELL           N/A     71  45  39 N3        30.42F
COEUR D`ALENE  NOT AVBL
MULLAN PASS    CLOUDY    50  35  56 CALM      30.49S
$$




USA.gov is the U.S. government's official web portal to all federal, state and local government web resources and services.